Aérodrome :
LOGIN :

S'inscrire | Disclaimer

   EN    FR    IT 

 










Légende :    VFR   VFR Marginal   IFR   IFR Intensif   IFR Très Intensif
Visi : 
Plafond : 
>= 8 km
>= 3000ft
5 à 8 km
1000 à 3000 ft
1500m à 5 km
500 à 1000 ft
800 à 1500m
200 à 500 ft
< 800m
< 200 ft
Symboles :   Orages  Brouillard  Fortes neiges  Fortes précipitations  Vent > 20 kt
SIGMETs :   Divers  Orages  Givrage  Turbulence  Onde Orograph.  Cendres Volcan.







- Altitude de l'aérodrome : 265 ft


ETSH - Holzdorf AB

DERNIER METAR :
  • 151220Z 26010KT 9999 FEW050 SCT072 24/11 Q1018 BLU+BLU+

METARs EXPIRÉS :
  • 151120Z 27008KT 9999 SCT044 24/11 Q1018 BLU+BLU+
  • 151020Z 28009KT 9999 SCT041 23/12 Q1019 BLU+BLU+

TAF TAF ETSH
Valide du 15 à 11h jusqu'au 15 à 20h UTC


151023Z 1511/1520 27010KT 9999 NSW SCT040
Pas de NOTAMs connus pour ce terrain.



MET'MAP, la Météo Aéronautique d'un coup d'oeil ! - Copyright ORBIFLY Décembre 2007 - Disclaimer

ORBIFLY MET'MAP TEAM :

Programmation & Développement : Alexandra Zaïnal
Conception & Développement : Baudouin d'Aumeries
Co-Programmation & Développement : Marc-Olivier Méhu
Soutien technique & logistique : Manuel Goepfert

Contact : metmap@orbifly.com




SOURCES & CREDITS :

   NOAA